Zurück zum Katalog

STARLINK-32787

AktivKommunikationVLEO
NORAD 62809·PAYLOAD·🇺🇸 United States

Gestartet Jan 24, 2025 von Vandenberg Space Force Base

Loading…

Nächste Überflüge (nächste 24 Stunden)

TLE

AktuellSource: CelesTrak SupGP

Epoche: Sep 15, 2026, 03:41 UTC

1 62809C 25018D   26258.15395833  .00058688  00000+0  17341-2 0  2581
2 62809  53.1564 146.7660 0001238  86.9058 343.7909 15.34357855    13

Verfolge STARLINK-32787 in Echtzeit mit AllMySat

Download on the App Store